Location: Ripley
(48.3812°N, 115.4473°W)
Time: 17:12:16
(UTC+00:00)

O/OREOS (USA 219) - Pass Details

Date: 29 June 2022
Orbit: 621 x 646 km, 72.0° (Epoch: 22 May)

Event Time Altitude Azimuth Distance (km) Brightness Sun altitude
Rises 06:27:58 0° 344° (NNW) 2,961 ? -16.3°
Reaches altitude 10° 06:31:32 10° 13° (NNE) 2,051 ? -16.5°
Maximum altitude 06:33:39 13° 40° (NE) 1,861 ? -16.6°
Drops below altitude 10° 06:35:46 10° 68° (ENE) 2,050 ? -16.7°
Enters shadow 06:39:17 - 96° (E) 2,949 ? -16.9°
